Location: Flensburg
(54.6357°N, 9.5142°E)
Time: 22:13:57
(UTC+01:00)

Envisat - Visible Passes

Search period start: 17 November 2017 00:00
Search period end: 27 November 2017 00:00
Orbit: 764 x 766 km, 98.2° (Epoch: 17 November)

Date Brightness Start Highest point End Pass type
(mag) Time Alt. Az. Time Alt. Az. Time Alt. Az.
17 Nov 4.6 17:43:33 14° NE 17:43:45 14° NE 17:46:22 10° NNE visible
17 Nov 4.0 19:23:46 35° N 19:23:46 35° N 19:26:50 10° N visible
17 Nov 5.5 21:03:59 17° NW 21:03:59 17° NW 21:05:32 10° NW visible
18 Nov 4.1 18:46:43 28° NNE 18:46:43 28° NNE 18:49:50 10° N visible
18 Nov 4.9 20:26:56 25° NW 20:26:56 25° NW 20:29:11 10° NNW visible
19 Nov 4.4 18:09:40 19° NE 18:09:40 19° NE 18:12:36 10° N visible
19 Nov 4.3 19:49:53 31° NNW 19:49:53 31° NNW 19:52:31 10° NNW visible
19 Nov 5.9 21:30:05 11° NW 21:30:05 11° NW 21:30:32 10° NW visible
20 Nov 4.8 17:32:36 12° NE 17:32:50 12° NE 17:34:49 10° NNE visible
20 Nov 4.1 19:12:49 31° N 19:12:49 31° N 19:15:40 10° N visible
20 Nov 5.4 20:53:02 18° NW 20:53:02 18° NW 20:54:34 10° NNW visible
21 Nov 4.2 18:35:46 24° NNE 18:35:46 24° NNE 18:38:36 10° N visible
21 Nov 4.8 20:15:59 25° NNW 20:15:59 25° NNW 20:18:06 10° NNW visible
22 Nov 4.5 17:58:42 17° NE 17:58:42 17° NE 18:01:16 10° N visible
22 Nov 4.4 19:38:55 29° N 19:38:55 29° N 19:41:23 10° NNW visible
22 Nov 5.9 21:19:07 12° NW 21:19:07 12° NW 21:19:43 10° NW visible
23 Nov 4.9 17:21:38 11° NE 17:21:53 11° NE 17:22:56 10° NNE visible
23 Nov 4.2 19:01:51 27° NNE 19:01:51 27° NNE 19:04:28 10° N visible
23 Nov 5.3 20:42:03 18° NW 20:42:03 18° NW 20:43:33 10° NNW visible
24 Nov 4.4 18:24:47 21° NNE 18:24:47 21° NNE 18:27:21 10° N visible
24 Nov 4.8 20:04:59 24° NNW 20:04:59 24° NNW 20:07:00 10° NNW visible
25 Nov 4.7 17:47:42 15° NE 17:47:42 15° NE 17:49:52 10° NNE visible
25 Nov 4.4 19:27:55 27° N 19:27:55 27° N 19:30:14 10° N visible
25 Nov 5.8 21:08:07 13° NW 21:08:07 13° NW 21:08:49 10° NW visible
26 Nov 5.9 07:23:36 10° NE 07:25:57 13° E 07:28:18 10° ESE visible
26 Nov 4.4 18:50:50 24° NNE 18:50:50 24° NNE 18:53:15 10° N visible
26 Nov 5.3 20:31:03 19° NNW 20:31:03 19° NNW 20:32:31 10° NNW visible
